Temp
-9 -8 -8 -8 -8 -8 -8 -8 -8 -8 -8 -8 -7 -8 -8 -8 -8 -7 -7 -8 -9 -9 -9 -9 -8 -9 -9 -9 -9 -9 -9 -9 -8 -8 -8 -8 -8 -8 -8 -8 -8 -8 -8 -8 -8 -8 -7 -7 -7
-9 -9 -9 -8 -8 -8 -8 -8 -8 -8 -8 -8 -8 -8 -8 -8 -8 -7 -7 -8 -8 -9 -9 -8 -8 -8 -8 -9 -9 -9 -9 -9 -9 -9 -9 -8 -8 -8 -7 -8 -8 -8 -8 -8 -8 -7 -8 -8 -8
-10 -9 -9 -9 -9 -9 -8 -7 -8 -8 -8 -8 -8 -8 -8 -8 -8 -7 -7 -8 -8 -8 -9 -9 -8 -8 -8 -9 -9 -9 -9 -9 -9 -9 -8 -8 -8 -8 -8 -7 -8 -8 -8 -8 -8 -8 -8 -8 -8
-9 -9 -9 -9 -9 -9 -8 -8 -8 -8 -8 -8 -8 -8 -8 -8 -8 -8 -7 -7 -8 -8 -8 -8 -8 -8 -8 -8 -8 -9 -9 -9 -9 -8 -8 -8 -8 -8 -8 -8 -8 -8 -8 -8 -8 -8 -8 -8 -8
-9 -9 -9 -9 -10 -9 -9 -9 -9 -9 -9 -8 -8 -7 -8 -8 -8 -8 -7 -7 -8 -8 -8 -8 -8 -8 -8 -8 -8 -9 -9 -9 -8 -8 -8 -8 -8 -8 -8 -8 -7 -7 -8 -8 -8 -8 -8 -8 -8
-9 -9 -9 -9 -10 -9 -9 -9 -9 -8 -9 -9 -8 -8 -8 -8 -8 -7 -8 -7 -7 -8 -7 -8 -8 -8 -8 -8 -8 -8 -9 -9 -8 -8 -8 -8 -8 -8 -8 -8 -8 -8 -8 -8 -8 -7 -8 -8 -8
-9 -9 -9 -9 -9 -10 -9 -10 -9 -9 -9 -8 -8 -8 -8 -8 -8 -8 -8 -7 -7 -8 -7 -7 -8 -8 -8 -8 -8 -8 -9 -8 -8 -8 -8 -8 -8 -8 -8 -8 -8 -8 -7 -7 -8 -8 -8 -8 -8
-10 -9 -9 -9 -9 -9 -9 -9 -9 -9 -9 -10 -9 -9 -9 -8 -8 -8 -8 -8 -7 -7 -8 -7 -8 -8 -9 -8 -8 -8 -8 -8 -8 -8 -8 -8 -8 -9 -8 -8 -7 -7 -7 -7 -8 -8 -8 -8 -8
-10 -10 -10 -9 -10 -9 -9 -9 -10 -10 -9 -9 -9 -9 -9 -9 -8 -8 -8 -8 -8 -7 -7 -7 -8 -8 -8 -8 -8 -8 -8 -8 -8 -8 -9 -9 -8 -8 -8 -8 -7 -8 -8 -8 -8 -8 -8 -8 -8
-10 -10 -10 -10 -10 -10 -9 -9 -9 -10 -10 -9 -9 -8 -9 -9 -9 -8 -8 -8 -8 -7 -7 -7 -8 -8 -8 -8 -8 -8 -8 -8 -8 -8 -9 -9 -9 -9 -8 -8 -8 -8 -8 -8 -8 -8 -8 -9 -9
-10 -10 -10 -10 -10 -9 -9 -9 -9 -9 -10 -10 -9 -9 -8 -9 -9 -9 -8 -8 -8 -8 -7 -7 -8 -8 -8 -8 -7 -8 -8 -8 -8 -8 -8 -9 -9 -8 -8 -8 -8 -8 -8 -8 -8 -9 -9 -9 -9
-10 -10 -11 -11 -10 -9 -10 -10 -9 -9 -9 -9 -9 -9 -9 -8 -10 -9 -9 -9 -8 -8 -7 -7 -7 -8 -8 -8 -7 -8 -8 -8 -8 -8 -8 -8 -8 -8 -8 -8 -8 -8 -8 -9 -9 -9 -9 -9 -10
-10 -10 -11 -11 -11 -10 -10 -9 -10 -9 -9 -9 -9 -9 -9 -10 -10 -9 -8 -9 -9 -8 -7 -7 -7 -7 -7 -8 -8 -7 -7 -8 -8 -8 -8 -8 -8 -8 -8 -8 -8 -8 -9 -9 -9 -9 -9 -10 -10
-11 -10 -11 -11 -11 -11 -10 -10 -9 -9 -9 -9 -9 -9 -10 -9 -9 -9 -9 -9 -9 -8 -8 -7 -8 -8 -8 -7 -8 -8 -8 -7 -8 -8 -8 -8 -8 -8 -8 -8 -9 -9 -9 -9 -9 -9 -9 -10 -10
-11 -11 -11 -11 -12 -11 -11 -10 -9 -10 -10 -10 -9 -9 -10 -10 -10 -9 -9 -9 -8 -9 -9 -8 -7 -7 -7 -8 -8 -8 -8 -8 -8 -8 -8 -8 -8 -8 -8 -8 -8 -9 -9 -9 -9 -9 -9 -10 -10
-12 -12 -11 -11 -12 -12 -12 -10 -10 -10 -10 -10 -9 -9 -9 -10 -10 -10 -9 -9 -8 -9 -9 -9 -8 -7 -7 -8 -8 -8 -8 -8 -8 -8 -8 -8 -8 -8 -8 -9 -9 -9 -9 -9 -9 -9 -10 -10 -10
-12 -12 -12 -12 -12 -12 -12 -11 -11 -11 -11 -10 -10 -9 -9 -9 -9 -10 -10 -9 -9 -8 -8 -9 -9 -8 -7 -7 -8 -8 -8 -8 -8 -9 -9 -9 -9 -9 -9 -9 -9 -9 -9 -10 -10 -9 -10 -10 -10
-13 -13 -12 -12 -13 -13 -12 -11 -11 -11 -10 -10 -10 -9 -9 -9 -9 -10 -10 -10 -9 -8 -8 -8 -9 -9 -8 -8 -8 -8 -8 -9 -9 -9 -9 -9 -9 -9 -9 -9 -9 -10 -10 -10 -10 -10 -10 -10 -10
-15 -15 -13 -13 -13 -13 -12 -12 -11 -11 -11 -10 -10 -9 -9 -9 -9 -11 -10 -10 -9 -9 -8 -8 -9 -9 -9 -9 -8 -8 -9 -9 -9 -9 -10 -10 -10 -10 -9 -10 -10 -10 -10 -10 -10 -10 -10 -10 -10
-16 -15 -14 -13 -14 -14 -13 -12 -12 -11 -11 -11 -10 -10 -9 -9 -9 -10 -11 -10 -10 -10 -10 -9 -9 -10 -10 -9 -9 -8 -8 -9 -9 -9 -9 -10 -10 -10 -10 -10 -10 -10 -10 -10 -10 -10 -10 -10 -10
-16 -15 -15 -15 -15 -14 -13 -12 -12 -12 -12 -12 -11 -10 -10 -10 -9 -9 -11 -11 -10 -10 -10 -10 -10 -10 -10 -10 -10 -9 -9 -9 -9 -9 -10 -10 -10 -10 -10 -10 -10 -10 -10 -10 -10 -10 -10 -10 -11
-16 -15 -16 -15 -15 -14 -15 -13 -12 -12 -12 -12 -12 -12 -11 -10 -11 -10 -10 -12 -12 -11 -11 -10 -10 -10 -10 -10 -10 -10 -9 -9 -9 -9 -9 -9 -9 -10 -10 -10 -10 -10 -10 -10 -10 -10 -11 -10 -11
-17 -17 -17 -16 -15 -15 -15 -15 -12 -12 -12 -13 -13 -12 -12 -12 -12 -12 -11 -11 -13 -12 -11 -11 -10 -10 -10 -10 -10 -10 -9 -10 -9 -9 -9 -9 -9 -10 -10 -10 -10 -10 -10 -10 -10 -11 -11 -11 -11
-18 -18 -18 -17 -17 -17 -14 -14 -13 -12 -12 -12 -13 -13 -12 -12 -12 -12 -12 -12 -12 -11 -11 -12 -11 -11 -10 -10 -10 -10 -10 -10 -10 -9 -10 -10 -10 -10 -10 -10 -10 -10 -10 -11 -11 -11 -11 -11 -12
-18 -18 -18 -18 -18 -17 -14 -16 -13 -13 -13 -13 -12 -13 -13 -13 -13 -12 -13 -12 -12 -12 -11 -11 -11 -11 -11 -11 -10 -11 -11 -11 -11 -10 -10 -10 -10 -10 -10 -10 -11 -10 -10 -11 -11 -11 -11 -12 -12
-19 -19 -19 -19 -18 -17 -16 -17 -14 -13 -13 -13 -12 -12 -12 -12 -13 -13 -12 -12 -12 -12 -12 -11 -11 -11 -11 -11 -10 -11 -11 -11 -11 -12 -11 -10 -10 -11 -11 -11 -10 -11 -11 -11 -11 -12 -12 -13 -12
-19 -20 -19 -20 -19 -19 -18 -17 -15 -14 -14 -14 -13 -13 -13 -13 -13 -13 -13 -12 -12 -12 -12 -12 -11 -13 -11 -11 -11 -11 -11 -11 -11 -11 -11 -10 -11 -11 -11 -11 -11 -11 -11 -12 -12 -12 -13 -12 -12
-20 -20 -20 -20 -19 -19 -19 -18 -16 -14 -14 -15 -14 -13 -14 -14 -14 -13 -13 -13 -12 -12 -12 -12 -12 -12 -13 -13 -12 -12 -11 -11 -11 -11 -11 -11 -11 -11 -11 -11 -11 -11 -11 -11 -12 -12 -12 -12 -12
-21 -21 -20 -20 -19 -20 -19 -18 -16 -15 -15 -15 -15 -14 -14 -15 -14 -14 -14 -14 -13 -13 -12 -12 -12 -12 -11 -11 -12 -12 -12 -11 -11 -11 -11 -11 -11 -11 -11 -11 -11 -11 -11 -11 -11 -12 -12 -12 -12
-21 -21 -21 -21 -20 -20 -19 -18 -16 -15 -15 -15 -15 -15 -15 -15 -15 -14 -13 -14 -14 -13 -12 -12 -12 -12 -11 -11 -12 -11 -12 -11 -11 -12 -12 -11 -11 -11 -11 -11 -10 -11 -11 -11 -12 -12 -12 -11 -11
Height
5869 5870 5872 5875 5881 5880 5877 5880 5878 5880 5881 5881 5881 5882 5880 5877 5876 5876 5872 5872 5871 5871 5870 5871 5872 5874 5874 5874 5876 5876 5876 5876 5877 5877 5877 5877 5877 5877 5878 5879 5879 5880 5881 5882 5883 5884 5885 5884 5884
5869 5870 5871 5874 5877 5878 5873 5877 5878 5880 5881 5880 5881 5881 5882 5879 5876 5875 5873 5873 5873 5873 5872 5872 5873 5875 5875 5876 5877 5877 5877 5877 5877 5878 5878 5878 5879 5879 5880 5880 5880 5881 5882 5883 5884 5885 5884 5885 5885
5866 5869 5871 5872 5873 5874 5871 5878 5877 5878 5880 5880 5881 5881 5881 5880 5878 5876 5874 5874 5874 5873 5874 5873 5874 5876 5876 5877 5877 5877 5878 5878 5878 5878 5879 5879 5880 5881 5881 5881 5882 5883 5884 5884 5885 5886 5886 5885 5886
5863 5866 5869 5871 5872 5869 5874 5877 5875 5878 5879 5880 5880 5881 5881 5880 5878 5877 5875 5874 5874 5873 5874 5874 5874 5875 5877 5877 5877 5878 5878 5879 5879 5879 5879 5880 5880 5881 5881 5882 5883 5884 5884 5885 5886 5886 5885 5885 5886
5860 5861 5864 5867 5868 5867 5872 5874 5874 5875 5878 5879 5879 5880 5880 5880 5878 5876 5875 5875 5874 5873 5873 5874 5875 5875 5876 5877 5877 5878 5879 5879 5879 5879 5880 5880 5880 5881 5881 5883 5884 5884 5885 5886 5885 5885 5885 5886 5887
5856 5857 5861 5863 5865 5865 5869 5870 5870 5872 5874 5876 5877 5878 5879 5879 5878 5876 5875 5875 5874 5873 5873 5873 5874 5875 5875 5876 5878 5878 5879 5879 5880 5880 5880 5881 5881 5881 5882 5883 5884 5885 5885 5886 5886 5886 5886 5886 5886
5851 5852 5856 5859 5863 5863 5863 5867 5869 5869 5871 5875 5873 5876 5878 5877 5877 5876 5874 5874 5873 5873 5872 5873 5873 5873 5874 5876 5877 5878 5879 5880 5880 5880 5881 5881 5882 5882 5883 5883 5884 5885 5887 5887 5886 5886 5886 5886 5885
5845 5846 5851 5856 5858 5860 5858 5864 5865 5866 5869 5870 5870 5872 5876 5875 5875 5875 5873 5873 5872 5871 5871 5871 5871 5872 5872 5874 5876 5877 5879 5880 5880 5881 5881 5881 5882 5881 5882 5883 5885 5885 5884 5884 5884 5885 5885 5884 5883
5837 5841 5846 5853 5852 5854 5852 5860 5861 5863 5865 5866 5866 5868 5870 5872 5871 5872 5872 5872 5871 5870 5870 5870 5871 5870 5871 5872 5874 5876 5877 5879 5879 5880 5880 5880 5880 5880 5881 5882 5883 5882 5882 5883 5884 5883 5883 5883 5883
5829 5835 5841 5846 5847 5848 5847 5855 5857 5860 5860 5863 5863 5863 5864 5868 5868 5869 5870 5870 5869 5868 5868 5869 5869 5870 5869 5870 5872 5873 5875 5876 5876 5877 5878 5879 5879 5878 5879 5879 5880 5881 5882 5883 5883 5883 5882 5881 5881
5824 5828 5832 5839 5841 5840 5844 5847 5850 5856 5857 5858 5857 5857 5860 5862 5863 5864 5866 5866 5867 5866 5865 5866 5867 5868 5868 5869 5870 5871 5873 5874 5875 5875 5876 5877 5877 5878 5878 5878 5878 5879 5880 5881 5881 5880 5880 5879 5878
5816 5818 5823 5831 5833 5834 5839 5840 5844 5849 5853 5852 5854 5851 5858 5854 5858 5861 5861 5861 5863 5863 5861 5862 5864 5865 5866 5867 5867 5868 5870 5871 5873 5873 5874 5874 5875 5876 5876 5876 5877 5877 5878 5878 5878 5878 5877 5876 5876
5807 5811 5815 5820 5824 5828 5832 5834 5837 5841 5846 5847 5849 5850 5851 5852 5852 5854 5855 5856 5858 5858 5858 5858 5859 5861 5863 5864 5864 5866 5867 5868 5870 5871 5872 5873 5874 5874 5874 5874 5875 5875 5875 5875 5875 5875 5873 5873 5872
5799 5801 5811 5813 5818 5818 5822 5827 5828 5836 5838 5841 5842 5846 5843 5847 5847 5848 5851 5849 5852 5854 5855 5854 5855 5856 5858 5859 5861 5862 5864 5865 5867 5868 5869 5870 5871 5871 5871 5872 5872 5872 5872 5872 5871 5871 5870 5870 5868
5791 5794 5801 5804 5807 5810 5811 5819 5825 5825 5828 5833 5834 5838 5840 5840 5841 5844 5844 5846 5845 5847 5850 5851 5851 5851 5852 5853 5855 5858 5859 5861 5863 5864 5866 5867 5867 5867 5867 5867 5868 5868 5868 5868 5867 5867 5866 5865 5863
5780 5784 5788 5798 5797 5801 5801 5808 5821 5816 5821 5824 5827 5830 5833 5835 5836 5837 5837 5840 5840 5842 5843 5846 5847 5847 5847 5848 5849 5852 5854 5857 5858 5860 5862 5862 5862 5863 5863 5863 5863 5863 5863 5863 5863 5862 5862 5861 5860
5769 5772 5774 5786 5788 5788 5789 5799 5810 5808 5811 5815 5819 5821 5825 5828 5830 5831 5832 5835 5836 5837 5838 5839 5842 5843 5843 5843 5844 5846 5849 5852 5854 5855 5856 5856 5857 5858 5858 5858 5858 5857 5858 5858 5858 5858 5857 5856 5856
5759 5762 5768 5777 5783 5776 5780 5787 5795 5800 5801 5806 5811 5813 5817 5820 5824 5823 5824 5825 5827 5828 5830 5833 5836 5837 5837 5838 5840 5841 5842 5844 5847 5849 5849 5849 5850 5852 5853 5853 5852 5852 5852 5853 5853 5853 5852 5851 5851
5749 5752 5756 5766 5770 5764 5769 5778 5783 5792 5793 5796 5800 5804 5808 5811 5814 5815 5816 5816 5819 5822 5824 5827 5827 5829 5830 5832 5834 5834 5835 5836 5838 5840 5842 5843 5845 5846 5846 5846 5846 5846 5846 5846 5847 5847 5846 5846 5847
5740 5745 5749 5754 5754 5753 5758 5767 5773 5782 5786 5787 5791 5796 5800 5803 5804 5808 5806 5809 5812 5814 5817 5817 5819 5821 5822 5824 5825 5827 5827 5830 5831 5833 5835 5837 5838 5838 5839 5839 5839 5840 5840 5840 5841 5841 5840 5841 5840
5730 5734 5738 5737 5738 5740 5745 5752 5765 5776 5775 5778 5781 5787 5789 5793 5795 5798 5799 5799 5801 5806 5808 5810 5812 5813 5812 5814 5816 5818 5821 5824 5826 5827 5828 5828 5828 5829 5832 5832 5832 5833 5833 5833 5833 5833 5833 5834 5834
5714 5729 5722 5725 5728 5730 5734 5732 5754 5763 5768 5771 5775 5776 5781 5785 5785 5786 5791 5792 5792 5795 5795 5799 5801 5803 5804 5804 5807 5810 5813 5816 5818 5818 5818 5819 5821 5823 5824 5824 5824 5824 5825 5825 5825 5826 5826 5826 5826
5711 5710 5711 5714 5717 5717 5728 5719 5748 5754 5765 5771 5766 5767 5769 5772 5775 5776 5779 5782 5784 5787 5788 5789 5792 5794 5796 5796 5800 5802 5805 5808 5808 5809 5810 5812 5813 5815 5815 5816 5816 5816 5817 5817 5818 5818 5818 5819 5819
5700 5699 5702 5704 5705 5698 5723 5717 5728 5748 5757 5761 5762 5760 5758 5762 5765 5767 5769 5773 5776 5777 5779 5780 5782 5785 5787 5788 5790 5793 5796 5798 5798 5801 5802 5803 5805 5806 5808 5808 5809 5809 5809 5810 5809 5810 5811 5811 5809
5687 5692 5692 5691 5692 5691 5721 5697 5710 5740 5742 5749 5752 5751 5751 5752 5755 5757 5760 5761 5765 5767 5770 5771 5772 5775 5776 5777 5779 5783 5785 5785 5788 5791 5792 5794 5796 5798 5799 5799 5800 5801 5802 5801 5801 5802 5802 5802 5800
5677 5681 5680 5680 5685 5694 5700 5685 5709 5731 5731 5738 5742 5741 5742 5743 5745 5747 5749 5751 5755 5757 5760 5762 5763 5764 5765 5767 5769 5772 5774 5774 5777 5780 5784 5784 5786 5789 5788 5790 5792 5792 5792 5792 5793 5793 5793 5792 5790
5668 5664 5677 5672 5678 5678 5678 5686 5706 5718 5723 5727 5728 5730 5732 5732 5734 5738 5739 5742 5744 5747 5749 5750 5753 5752 5752 5756 5759 5761 5763 5763 5768 5770 5771 5774 5776 5780 5779 5780 5781 5782 5782 5782 5782 5783 5783 5781 5781
5654 5663 5663 5665 5666 5666 5670 5680 5693 5707 5714 5715 5717 5718 5721 5722 5725 5726 5728 5731 5733 5735 5737 5739 5741 5744 5746 5746 5747 5749 5752 5754 5756 5758 5761 5764 5766 5766 5768 5769 5770 5770 5771 5771 5771 5774 5774 5773 5773
5645 5645 5651 5655 5654 5652 5659 5663 5692 5694 5700 5703 5703 5706 5710 5710 5713 5715 5717 5719 5721 5724 5727 5729 5732 5734 5737 5737 5738 5739 5741 5742 5744 5745 5749 5753 5755 5755 5756 5756 5756 5757 5759 5759 5760 5763 5763 5763 5762
5632 5637 5642 5639 5648 5649 5651 5653 5674 5678 5690 5694 5694 5695 5694 5695 5700 5703 5705 5708 5710 5712 5715 5718 5720 5723 5725 5726 5726 5729 5730 5731 5732 5734 5738 5741 5743 5743 5744 5744 5743 5745 5748 5750 5751 5752 5753 5753 5753
Wind_Speed
23 22 21 18 20 21 22 15 15 13 13 15 18 19 19 19 19 16 13 6 3 4 6 5 7 9 10 11 10 10 10 9 8 8 8 8 7 7 7 10 13 13 12 10 8 6 6 5 3
24 23 23 22 20 21 30 20 19 13 15 15 17 19 18 17 17 16 12 6 4 3 3 4 8 11 10 12 10 9 8 9 8 7 7 6 6 6 8 12 12 12 11 8 6 5 4 3 1
28 27 26 24 22 25 32 22 24 18 17 17 17 19 18 16 16 14 11 7 2 5 2 7 11 10 9 10 10 8 7 8 9 6 5 5 4 5 7 11 11 9 8 7 5 3 2 1 1
33 31 33 28 27 31 28 25 27 22 20 19 20 18 21 17 14 14 11 8 2 8 5 7 8 11 10 10 11 9 7 8 8 6 3 2 2 4 7 10 8 7 7 6 4 2 1 1 2
35 36 34 30 27 30 25 27 29 28 23 20 22 20 22 20 15 13 11 8 6 7 9 6 9 10 13 11 11 10 9 9 7 6 3 1 2 4 6 8 8 8 5 4 3 3 2 4 5
38 39 36 32 29 32 27 27 28 30 28 23 23 24 20 20 18 13 13 9 8 7 12 10 9 10 14 15 13 11 11 10 7 5 2 2 2 3 6 7 7 6 4 4 3 4 5 6 8
38 41 38 35 32 32 35 28 30 22 34 30 36 28 22 20 18 16 13 11 8 10 9 15 11 12 14 15 14 12 11 11 8 6 4 4 5 5 6 7 5 4 4 4 6 7 7 8 9
35 40 43 36 34 33 38 28 30 32 31 23 36 37 25 22 18 19 16 13 10 11 11 14 13 12 13 14 15 14 12 11 8 6 6 7 8 7 8 8 7 7 9 10 9 8 8 9 11
37 39 38 38 37 37 43 35 33 28 31 36 32 37 38 27 21 20 20 17 12 11 14 13 15 15 14 15 14 14 13 12 10 8 8 9 9 8 9 10 11 13 12 11 9 9 11 12 13
43 40 37 37 42 41 45 40 38 34 30 31 35 33 39 37 35 26 27 21 17 13 14 15 16 17 16 15 15 14 13 14 14 14 12 11 11 11 13 15 14 13 12 12 13 13 14 14 14
46 45 41 38 42 48 46 44 42 38 34 32 36 36 34 40 43 33 30 24 21 16 15 18 19 20 18 16 16 16 16 18 17 15 13 12 11 10 11 13 15 15 15 15 15 16 16 15 15
51 49 45 37 42 46 46 47 49 43 39 38 37 39 33 34 40 40 30 26 25 21 17 18 20 23 24 20 18 18 18 19 19 17 16 14 13 12 12 13 14 16 17 17 17 17 18 17 17
57 53 50 43 42 45 45 50 47 47 42 40 40 39 36 35 39 36 30 27 29 26 21 19 20 25 27 26 24 22 21 21 21 20 18 17 16 15 14 15 15 16 17 17 17 17 18 18 18
59 59 50 47 44 44 45 46 51 47 44 41 41 40 40 36 36 36 31 33 29 28 26 22 21 24 27 30 30 28 24 24 23 22 21 20 20 19 19 18 18 19 20 20 19 19 19 19 19
62 61 55 54 51 51 48 48 47 48 45 43 42 46 41 40 40 38 37 36 32 30 28 27 25 24 27 30 31 31 30 27 26 25 23 24 24 22 23 22 22 22 22 23 22 21 20 20 21
64 65 62 55 53 52 51 58 46 52 49 45 44 43 50 45 43 42 42 40 37 34 31 30 28 27 25 28 30 32 32 30 29 27 25 25 25 25 26 25 25 26 26 24 24 23 22 21 23
69 67 65 56 53 55 59 62 48 54 50 51 48 46 50 50 42 44 42 41 40 37 36 32 30 29 28 27 30 31 33 32 32 30 29 29 28 28 28 28 29 29 27 26 24 25 24 23 22
67 66 65 61 51 53 55 59 48 51 57 52 53 52 48 53 44 43 46 44 42 43 39 36 32 31 30 29 28 29 30 32 34 34 34 34 33 31 30 31 30 29 28 27 25 25 25 25 22
57 56 57 58 50 56 59 53 47 47 56 54 51 54 51 50 50 47 43 47 45 44 41 36 35 35 33 30 31 30 31 33 33 35 36 36 34 32 30 30 29 29 29 29 26 24 26 25 21
54 50 52 55 54 55 57 56 51 47 51 57 54 54 54 47 48 47 45 43 47 47 44 43 40 37 35 33 33 34 32 32 33 33 33 34 33 32 32 32 31 29 29 29 26 24 26 23 22
60 54 40 44 53 56 58 63 52 50 51 54 55 53 54 50 46 44 49 42 45 43 45 43 42 40 40 37 36 35 34 30 28 27 30 33 35 35 33 33 31 30 30 28 25 25 25 24 23
63 66 52 60 64 66 58 70 59 53 46 50 48 51 51 48 44 39 42 49 36 38 40 45 46 45 42 42 39 36 35 31 29 31 32 33 32 31 30 30 29 28 27 27 28 28 27 26 27
52 66 71 67 66 65 62 65 66 58 54 43 43 46 50 48 43 39 37 44 38 38 40 43 45 47 45 43 42 38 34 34 35 34 33 32 30 30 31 30 29 29 28 28 29 29 29 29 30
60 58 62 64 67 69 63 65 71 60 60 53 48 37 42 46 43 42 36 41 44 39 36 40 43 45 44 44 42 40 39 37 39 37 35 35 33 33 31 30 30 31 30 29 31 31 30 30 36
66 65 63 62 65 66 62 69 73 57 59 55 51 49 40 37 45 43 40 40 42 43 39 35 41 42 45 46 46 42 41 42 39 38 39 38 36 34 34 35 33 34 34 34 34 33 33 36 42
58 59 63 64 61 63 64 67 65 56 57 48 40 41 42 40 44 46 44 43 43 42 45 38 36 41 43 45 45 45 44 42 43 41 41 43 41 37 41 43 41 40 39 38 41 45 42 44 36
57 59 57 59 60 60 61 59 59 56 55 53 49 43 44 44 44 45 46 44 45 47 46 46 41 38 43 42 42 45 42 44 44 44 45 44 44 43 45 46 46 44 45 44 43 41 41 41 41
54 53 56 57 59 59 59 62 57 54 52 54 55 47 43 32 37 42 45 49 49 49 47 45 46 44 42 43 43 42 44 47 46 46 45 44 43 45 46 47 48 48 48 46 41 38 38 41 39
51 53 55 56 38 51 56 51 48 51 51 49 44 45 42 34 35 39 38 43 49 52 51 52 49 46 47 45 43 43 44 48 49 50 46 38 42 45 47 48 48 49 49 49 36 38 39 38 36
48 49 51 54 60 60 58 52 48 57 56 55 57 51 54 52 45 39 44 38 44 52 55 54 52 53 50 49 43 44 46 47 49 34 35 38 41 41 42 45 50 50 47 46 40 39 36 36 37
Wind_Direction
243 243 248 248 258 266 267 266 272 290 303 312 319 328 342 356 6 9 12 37 159 156 134 129 124 137 154 155 158 159 154 155 157 153 152 155 148 159 154 155 154 157 154 149 137 124 119 115 132
252 252 250 256 260 266 266 262 273 284 291 301 310 317 332 344 357 6 6 21 216 172 157 146 159 155 158 156 166 160 162 163 164 164 157 158 155 168 168 166 164 166 156 138 131 140 141 116 65
257 258 260 253 256 260 266 279 279 278 282 290 299 307 318 331 345 356 1 351 234 214 206 130 156 155 157 164 168 175 184 179 171 170 158 163 168 185 187 177 174 162 147 147 154 155 119 78 344
266 265 264 266 257 265 268 274 276 276 276 286 291 301 308 316 328 341 356 341 292 234 212 196 176 179 165 177 186 193 203 194 182 165 148 181 211 217 204 186 180 163 166 170 171 170 183 272 294
265 267 273 272 271 265 268 262 269 276 272 279 285 292 299 306 311 323 338 332 300 234 224 210 200 190 194 194 200 207 213 206 196 180 159 201 208 196 190 187 189 185 189 199 189 223 282 315 317
265 265 271 271 271 273 271 270 260 263 271 265 276 283 286 296 299 306 320 327 303 261 223 218 209 215 205 204 215 215 210 209 215 212 211 271 285 201 191 197 202 198 217 235 262 282 294 314 333
261 267 269 270 272 276 271 273 265 269 260 269 268 268 276 283 291 292 300 311 298 276 245 227 211 219 210 210 214 226 222 214 215 220 236 263 283 261 228 217 220 228 257 273 266 275 292 316 317
261 263 266 271 271 272 272 272 278 267 261 277 258 257 263 269 280 287 285 293 292 275 260 235 217 212 201 205 212 225 223 222 227 250 263 266 261 251 229 238 237 243 243 241 251 276 295 293 292
267 267 266 269 269 268 272 274 274 280 271 262 268 254 249 257 268 282 280 279 281 268 262 245 230 207 204 207 210 221 227 220 229 242 251 259 253 246 237 237 241 240 245 255 267 279 287 291 298
268 271 273 265 266 267 270 268 272 276 276 269 265 267 253 249 261 267 273 271 271 267 253 252 239 223 211 212 213 218 222 224 224 234 245 260 265 243 233 234 241 254 263 270 275 277 282 289 294
268 271 269 263 263 264 267 271 270 270 274 273 265 255 270 250 251 268 258 261 263 258 246 244 239 231 228 223 228 231 236 233 233 242 246 256 272 268 259 256 258 262 266 269 273 277 282 289 295
266 267 267 263 260 264 267 265 268 270 271 273 273 268 259 257 248 257 246 254 257 254 247 242 240 237 233 236 238 242 242 241 242 245 251 256 265 273 273 268 269 272 276 278 279 282 288 291 294
263 264 266 265 264 266 260 267 266 267 271 273 275 269 259 253 247 240 243 248 252 254 248 242 239 239 238 239 240 245 245 241 244 245 250 258 265 269 270 274 276 280 282 283 285 287 288 290 290
259 261 266 268 267 260 258 259 264 264 263 271 271 267 268 255 239 240 244 245 245 251 254 246 242 241 238 242 245 246 246 247 246 246 250 253 260 267 272 277 281 286 287 285 287 288 288 288 288
256 259 260 260 264 263 263 261 265 260 256 258 265 267 270 260 246 241 245 248 245 247 252 254 248 242 240 240 243 245 248 247 244 247 253 254 256 259 261 268 274 279 284 285 286 288 290 290 287
251 255 258 258 258 261 261 264 263 266 260 253 258 264 265 270 251 242 243 249 248 249 250 254 255 250 247 244 243 245 248 246 245 252 256 258 257 258 261 266 271 276 278 279 281 286 288 288 285
251 250 254 255 254 259 263 267 258 258 263 256 253 258 263 268 262 249 247 249 253 251 253 255 258 258 255 252 249 247 247 249 248 253 257 257 260 261 263 269 273 275 277 278 281 284 284 283 283
251 252 253 256 255 258 264 269 257 252 257 259 251 253 257 264 268 260 250 245 246 251 249 252 258 260 259 257 256 254 252 250 251 253 255 257 261 265 270 272 273 276 276 277 276 279 280 279 280
247 252 257 255 248 250 257 257 261 258 255 255 254 250 253 258 263 271 250 250 246 250 253 253 254 256 259 260 259 256 252 249 248 250 255 259 265 269 269 270 274 277 276 275 275 276 275 279 278
241 237 243 241 240 245 249 253 257 260 259 256 252 250 250 251 257 266 269 254 250 250 248 250 252 256 258 257 257 256 254 254 253 255 259 261 264 266 266 267 269 269 271 272 274 270 271 276 275
232 230 235 240 235 240 246 254 257 260 261 257 253 245 244 245 250 257 268 266 250 247 250 250 254 252 252 255 256 256 256 257 261 259 258 258 257 260 265 268 271 273 273 273 269 264 268 271 272
233 230 244 245 242 242 244 254 255 255 257 258 256 244 242 243 242 243 253 271 256 255 252 251 249 249 250 252 253 255 255 255 255 254 253 257 260 264 265 265 267 268 268 266 262 265 267 267 271
239 237 239 240 243 246 242 251 253 253 251 261 259 250 243 238 239 239 241 259 260 258 258 257 253 251 252 254 255 256 257 256 252 253 255 257 258 259 260 261 263 264 263 261 261 263 264 269 274
239 243 242 246 247 250 244 251 255 256 257 251 256 262 256 239 241 240 235 248 259 260 259 259 254 254 254 254 253 257 259 257 255 253 253 254 252 254 258 262 262 263 263 261 260 261 265 271 273
238 241 247 249 249 253 247 251 256 255 260 262 251 256 262 244 240 241 239 239 247 251 263 261 259 257 252 253 250 251 255 256 254 254 253 252 254 255 258 255 258 263 263 264 264 267 270 271 278
239 242 243 246 251 254 250 255 252 257 258 257 258 259 258 257 245 245 244 238 241 249 255 263 261 256 252 251 253 250 250 253 255 250 251 251 253 257 260 264 260 259 261 262 265 271 270 271 277
240 242 243 247 247 252 253 258 254 255 258 252 254 262 257 251 247 246 248 244 243 245 251 253 262 264 255 250 257 254 251 254 257 256 253 256 258 263 266 266 266 267 261 261 261 263 270 270 273
239 242 244 246 250 250 256 255 251 250 253 257 256 251 240 236 244 247 250 249 245 247 250 250 256 261 259 265 257 253 256 252 255 255 256 260 264 266 267 267 267 266 268 262 260 264 271 270 269
239 239 240 241 248 243 247 254 243 248 240 246 236 227 219 236 253 248 245 247 253 249 249 251 252 254 259 258 263 262 255 249 247 251 254 257 264 266 267 267 264 261 262 265 259 265 263 263 268
243 242 240 242 241 248 246 246 243 238 237 241 244 251 246 249 261 263 251 243 249 253 254 252 254 256 253 257 259 260 254 249 253 251 259 260 261 264 267 267 267 262 257 263 259 261 262 267 270